SL-14 DEB, 45295

Orbit data source: Space-Track

SL-14 DEB, 45295 is space debris in LEO originally from a launch on Thu, 15 Aug 1991 UTC launched from the Plesetsk Missile And Space Complex (PKMTR). Debris objects in space refer to the collection of defunct objects orbiting the Earth. Examples of debris include non-operational satellites, rocket bodies, and fragments generated from explosions, collisions, or faulty payload assembly.

Loading next visibility...
Identifier
45295, 1991-056AH
Orbit
LEO
Last TLE update
12 hours ago
Origin
Manufacturer
Unknown
Mission
Spacecraft
Bus & Motor
Unknown
Mass
Unknown
Launch date (UTC)
1991-08-15 (34 years ago)
Launch vehicle
Unknown
Launch site
Plesetsk Missile And Space Complex (PKMTR)
Object type
Payload
Rocket body
Debris
Shape & HBR
Unknown
Radar Cross Section
Small (<0.1 m²)

Expand to show TLE details & history

TLE from 12 hours ago
0 SL-14 DEB
1 45295U 91056AH  25128.70993766  .00001278  00000-0  23281-2 0  9997
2 45295  82.5722  22.6865 0077176 188.9513 171.0251 13.38803817253600
Epoch: 2025-05-08T17:02Z
Definitive object data (Epoch: 2025-05-08T17:02:18.613Z)
Latitude
-0.00008°
Longitude
-99.6676°
Altitude
1,173.71 km
Speed
7.239 km/s
True Right ascension
01h 30m 44s
True Declination
0° 00' 00"
Sunlit
Object was in daylight at TLE epoch
Visualization TLE readout
Latitude
-44.74797°
Longitude
-107.43092°
Altitude
1,165.782 km
Speed
7.252 km/s
Apparent Right ascension
01h 14m 27s
Apparent Declination
-42° 25' 28"
Sunlit
Object is in daylight
Visualization observer readout
Local Sidereal Time
13:30:38
Azimuth
130.807° SE
Elevation
-86.056°
Doppler factor
1
Orbital elements
Apogee altitude
1,168.749 km
Perigee altitude
1,053.154 km
Semi-major axis
7,489.089 km
Eccentricity
0.0077176
Inclination
82.5722°
RAAN
22.6865°
Arg. of periapsis
188.9513°
True anomaly
171.16176°
Mean anomaly
171.0251°
Eccentric anomaly
171.09356°
Mean motion
3.34888 °/min
BSTAR
0.0023281
Orbital period
107.5 mins
Loading maneuver chart data...
Loading SW <> Apogee altitude chart data...
Loading historical data...
Loading historical data...
Loading historical data...
Loading historical data...
Loading historical data...
Loading historical data...
Loading historical data...

SL-14 DEB Visibility forecast

Observer location: undefined°, undefined°

Span
Click to sort rows by Start time (UTC) header in descending order
Start Az.
Max El. time (UTC)
Max El. Az.
Max El.
End time (UTC)
End Az.
9 mins2025-05-09 06:12:58.628Z321.805° NNW2025-05-09 06:17:58.628Z271.787° WNW19.999°2025-05-09 06:21:58.628Z232.856° WSW
10 mins2025-05-09 16:28:58.628Z134.011° SE2025-05-09 16:32:58.628Z92.446° ESE25.887°2025-05-09 16:38:58.628Z30.935° NE
12 mins2025-05-09 18:15:58.628Z213.638° SW2025-05-09 18:21:58.628Z293.831° NW36.544°2025-05-09 18:27:58.628Z355.49° N
10 mins2025-05-10 03:43:58.628Z20.258° NNE2025-05-10 03:47:58.628Z68.246° E28.189°2025-05-10 03:53:58.628Z134.595° SE
|